SL-14 R/B

Satellite information

Favourite Embed

Satellite Type and Status

ROCKET BODYIN ORBIT

Key statistics

Satellite SL-14 R/B at a glance.

Uptime

14323

Days in orbit

Revolutions

≈ 14.9

Per day

Orbit

LEO

Low Earth Orbit

Inclination

82.5

Latest

Satellite identification and parameters

Extended collection of information and parameters for SL-14 R/B.

Object identification

Identified? True

Debris? False

Object name: SL-14 R/B

International designator: 1986-018B

Object number (NORAD): 16612

Object ID (CCSDS): 16612

Country: COMMONWEALTH OF INDEPENDENT STATES (CIS)

Current information (Y/N): Y

RCS size: LARGE

Orbital parameters

Period: 96.885 minutes

Inclination: 82.5131 deg

SMA: 6987.658 km

Apoapsis: 621.339 km

Periapsis: 597.707 km

RAAN: 111.0887 deg

Eccentricy: 0.001691

Argument of periapsis: 1.8534 deg

Mean anomaly: 358.2742 deg

Mean motion: 14.86295984 rev/day

Mean motion (dot): 0.00000791 rev/day2

B* drag term: 0.000086941 1/REarth

Two-line elements (TLE)

Creation date: May 8, 2025, 3:01 a.m.

Reference frame: TEME

Reference center: EARTH

Epoch: May 7, 2025, 5 p.m. UTC

TLE line 0: 0 SL-14 R/B

TLE line 1: 1 16612U 86018B 25127.70878764 .00000791 00000-0 86941-4 0 9992

TLE line 2: 2 16612 82.5131 111.0887 0016910 1.8534 358.2742 14.86295984997880

Live tracking on map

Real-time ground track for satellite SL-14 R/B.

In-orbit conjunctions

A list of the most updated potential collisions computed for object SL-14 R/B.

Target Orbit TCA Probability of collision Miss distance Type
CZ-6A DEB LEO 2025-04-10 11:28:36 0.0001005444 176.0 (m) DEBRIS
CZ-6A DEB LEO 2025-03-12 02:36:33 0.0002309864 629.0 (m) DEBRIS
CZ-6A DEB LEO 2025-02-24 18:09:08 0.0008306117 95.0 (m) DEBRIS
CZ-4B DEB SSO 2024-08-10 06:04:31 0.0004188427 58.0 (m) DEBRIS

Associated space launch

Tselina-D satellites provided detailed observation of radio sources detected by the smaller Tselina-O satellites as part of the Tselina ELINT system.

SL-14 R/B was lifted into orbit during the mission ‘Tsiklon-3 | Tselina-D 54’, on board a Tsiklon-3 space rocket.

The launch took place on Feb. 19, 1986, 11:04 p.m. from 32/1.

For more information about the launch, click the button.

Launch to space Tsiklon-3 | Tselina-D 54
Tsiklon-3 | Tselina-D 54

Agency: N/A

Status: Launch Successful

Launch date: Feb. 19, 1986, 11:04 p.m. UTC

Rocket: Tsiklon-3

Launch pad: 32/1

Location: Plesetsk Cosmodrome, Russian Federation

...

Latest news about this satellite

There are no fresh news available about this satellite. Check back as we update our databases every day.


Newsletter sign-up

Weekly statistics, charts and insights to help you stay on top of the space industry.